CAPE
2271 2452 2683 2659 2478 2454 2391 2384 1924 1828 1825 1639 1806 1767 1740 1473 1416 1534 1620 1648 1605 1581 1506 1625 1362 1470 1480 1290 1110 854 655 460 282 224 230 212 253 202 201 170 146 191 359 366 373 663 783 852 814 930 1178 1298 1612 1255 1184 1131 1254 1283 1262 1254 1064 1067 969 1047 1124 1150 1081 1242 1210 1123 1117 1207 1189 1301 1127 1280 1226 1621 1538 1491 1347 1200 1196 1155 1100
2382 2584 2574 2550 2484 2548 2494 2037 1842 1742 1748 1901 1578 1613 1434 1513 1402 1449 1653 1609 1607 1500 1518 1550 1529 1505 1314 1119 933 706 622 541 484 475 437 379 277 243 263 353 457 484 444 488 632 597 938 842 817 805 798 1038 1196 902 1081 1204 1272 1181 1023 1008 1048 1024 1004 989 1182 1115 1139 1030 1040 1089 1026 1190 1197 1162 1204 1587 1724 1502 1410 1404 1349 1042 1035 1161 1298
2520 2636 2547 2489 2600 2630 2412 2045 1692 1551 1574 1850 1761 1684 1644 1628 1718 1567 1509 1438 1558 1551 1618 1467 1597 1483 1333 1029 902 826 705 613 565 405 352 377 413 337 334 386 446 465 475 516 527 546 514 853 705 960 970 862 1000 1006 979 1196 1112 1226 1102 1083 1048 877 970 1005 1131 1107 1216 1156 1104 960 1060 1048 1117 1154 1366 1568 1439 1471 1322 1261 1140 1031 1030 1199 1053
2539 2640 2487 2667 2606 2430 2354 1961 1743 1676 1856 1943 1812 1689 1654 1523 1603 1511 1478 1384 1437 1514 1493 1470 1378 1277 1224 1059 941 876 741 556 540 538 551 546 521 431 445 473 457 411 455 561 582 595 818 911 736 921 1142 1079 1110 921 1074 939 909 846 1035 1116 1062 1087 900 966 967 1069 956 1082 1076 816 792 863 978 1341 1320 1304 1414 1320 1268 1200 1173 1169 1078 1021 1054
2510 2556 2528 2527 2329 2389 2338 2077 1932 1998 1907 1870 1699 1456 1368 1454 1565 1617 1366 1531 1471 1394 1460 1400 1336 1281 1136 1045 936 834 794 730 676 627 584 571 536 510 482 467 370 397 479 412 586 623 691 1013 781 810 958 918 1096 813 1084 956 972 1009 1060 1047 990 901 785 766 873 996 966 1122 1076 836 799 870 966 1291 1234 1192 1176 1059 1034 1068 1086 1003 978 921 858
2490 2478 2443 2318 2248 2379 2397 2264 1976 1803 2097 1748 1582 1614 1518 1709 1649 1701 1616 1459 1518 1454 1420 1376 1290 1147 1141 968 948 945 845 707 690 632 594 641 768 600 513 505 341 203 406 582 551 550 772 860 907 934 775 822 1013 1025 1133 1169 972 774 678 830 953 911 852 914 957 1002 975 1038 946 840 903 941 997 1125 1259 1209 1126 1090 1032 932 796 741 744 777 846
2511 2493 2319 2201 2159 2269 2314 2280 1988 1668 1772 1868 1880 1903 2006 1923 1527 1246 1344 1537 1699 1415 1350 1314 1269 1210 1154 1047 1023 991 896 813 670 610 661 862 785 722 581 610 647 700 619 698 707 709 830 857 820 1014 947 900 964 968 940 818 595 626 862 928 837 1024 981 931 958 918 800 695 734 755 779 864 944 1064 1244 1246 1077 932 853 857 815 812 713 621 620
2460 2371 2219 2132 2079 2200 2364 2329 2001 2069 2090 2130 2050 2094 2157 2144 1638 1388 1520 1693 1564 1360 1333 1296 1264 1295 1226 1126 1057 1024 974 814 685 652 698 1120 1080 914 841 844 952 1007 1071 1108 851 713 827 853 897 810 891 978 943 824 724 734 683 682 690 938 1062 1192 1213 906 834 676 499 466 498 473 428 285 197 277 717 947 874 722 613 686 464 383 388 417 232
2338 2296 2248 2077 2046 2360 2428 2271 2328 2244 2075 2183 2100 2085 2105 2170 2064 2026 1887 1588 1493 1369 1306 1216 1199 1249 1186 1135 1046 1009 973 794 716 715 770 1210 1097 1103 1228 1298 1380 1341 1180 1078 1073 1066 997 962 969 975 911 956 808 903 893 609 550 613 956 1217 1274 1464 1163 724 659 565 423 442 466 505 490 429 222 64 153 121 155 259 197 233 243 116 306 430 452
2327 2300 2143 1986 2145 2470 2341 2266 2354 2280 2186 2150 2153 2138 2159 2026 1982 1749 1632 1662 1507 1384 1235 1208 1197 1279 1150 1073 986 1184 1011 893 887 867 876 1191 1237 1183 1262 1319 1235 1357 1381 1088 992 855 810 880 962 1134 1036 1070 1041 847 724 634 625 948 924 1110 1509 1457 1017 890 808 629 490 574 608 652 817 762 297 298 412 483 488 388 263 227 485 939 811 886 865
2356 2300 2065 2073 2318 2365 2243 2332 2367 2263 2281 2240 2239 2264 2268 2279 2199 2075 1892 1873 1601 1445 1315 1231 1202 1288 1159 1039 1187 1506 1131 1034 969 940 962 1115 1164 1228 1258 1333 1403 1396 1146 990 1011 1107 1172 1168 1060 1194 1227 1144 794 632 823 807 786 1007 622 779 999 989 793 523 326 345 413 480 475 505 610 706 415 382 320 158 134 224 297 265 315 824 925 840 914
2407 2295 2253 2216 2378 2232 2326 2422 2364 2294 2297 2257 2190 2287 2332 2301 2175 1827 2125 1838 1654 1582 1459 1419 1424 1369 1261 1180 1211 1589 1368 1158 1057 1031 1015 1174 1316 1683 1858 1892 1576 1179 1093 1130 1286 1331 1220 1114 1171 1229 1122 878 678 712 879 957 903 952 574 578 609 547 399 377 293 13 50 122 180 355 389 313 142 17 64 311 214 56 49 162 234 753 845 846 767
2415 2388 2326 2340 2291 2264 2367 2436 2426 2393 2392 2243 2287 2279 2330 2396 2204 2150 1938 2010 1874 1687 1519 1501 1555 1605 1518 1392 1298 1506 1242 1182 1163 1198 1362 1754 1925 1966 1855 1687 1282 1229 1190 1258 1312 1298 1364 1330 1342 1202 942 808 994 955 965 1093 1192 945 642 535 524 483 369 344 4 8 11 5 22 5 0 0 0 412 308 269 148 329 401 586 882 884 889 863 865
2321 2408 2402 2253 2212 2513 2383 2342 2400 2449 2359 2306 2312 2293 2390 2444 2212 2162 2181 2121 1984 1856 1797 1802 1736 1726 1723 1578 1550 1562 1472 1386 1419 1430 1801 1928 1928 1976 1822 1704 1404 1310 1358 1380 1359 1402 1460 1504 1248 865 1018 1398 1287 1039 1137 1264 1328 996 664 619 605 519 414 275 146 18 49 60 152 58 158 304 366 509 392 340 278 267 204 740 878 854 736 649 676
2317 2404 2305 2216 2354 2378 2455 2360 2311 2416 2332 2247 2294 2359 2362 2300 2256 2163 2164 2128 1988 1952 1922 1835 1855 1854 1733 1657 1766 1747 1632 1493 1472 1745 1970 1995 2003 1830 1599 1411 1391 1418 1473 1449 1441 1366 1297 1260 1070 1252 1318 1382 1315 1216 1223 1478 1424 894 579 536 480 334 228 5 0 0 14 145 297 271 290 326 539 399 299 463 462 471 488 520 535 526 572 566 539
2295 2394 2321 2308 2307 2370 2389 2381 2402 2414 2330 2354 2374 2418 2353 2248 2164 2145 2162 2149 2002 1890 1916 1930 1970 1964 1907 1864 1847 1779 1594 1481 1798 2024 2019 1952 1895 1726 1571 1321 1339 1534 1543 1475 1469 1434 1426 1196 1245 1313 1333 1518 1330 1076 1346 1570 1364 846 621 519 396 342 191 6 0 0 0 164 164 119 236 342 618 427 382 351 267 256 258 332 357 435 488 480 422
2173 2194 2240 2233 2208 2193 2207 2291 2407 2398 2457 2447 2445 2412 2317 2165 2100 2110 2104 2084 1996 1913 1959 2006 2110 2044 1972 1902 1831 1721 1800 1868 2026 1974 1866 1961 1873 1709 1572 1373 1480 1572 1589 1477 1405 1342 1406 1280 1319 1386 1299 1562 1214 1262 1309 1264 1121 806 628 478 356 322 183 32 0 0 19 107 53 8 187 252 306 315 221 140 233 235 187 202 212 247 314 278 267
2017 2052 2083 2156 2135 2107 2112 2156 2298 2166 2291 2447 2491 2393 2262 2156 2073 2087 2069 2014 1987 1937 1938 2015 2040 2048 2078 1968 1918 2235 2232 1973 1897 1906 2008 1895 1714 1594 1401 1366 1346 1528 1553 1476 1452 1416 1360 1403 1354 1455 1509 1546 1206 1313 1089 724 696 680 518 427 354 309 251 148 6 32 97 185 20 180 101 391 406 249 243 268 254 274 351 321 386 346 323 263 248
1850 1924 1991 2073 2102 2073 1976 2018 2112 2086 2181 2028 2196 2357 2213 2199 2097 2139 2060 1971 1921 1934 1978 1930 1942 2060 2189 2206 2299 2429 2274 2062 1999 1996 1877 1680 1630 1557 1450 1307 1474 1614 1629 1578 1528 1471 1476 1459 1487 1528 1504 1465 1442 1373 1382 1108 751 561 556 505 408 344 312 141 3 0 2 0 3 19 137 470 426 342 579 525 435 439 440 436 402 321 296 213 136
1794 1842 1898 1991 2034 2010 1918 1887 1935 1939 2019 1906 2018 2057 2149 2232 2158 2128 2036 2022 2050 1940 1876 1898 2065 2157 2200 2140 2081 2100 2048 2081 2099 2028 1892 1732 1549 1387 1489 1441 1407 1481 1585 1591 1560 1485 1476 1463 1555 1543 1435 1646 1364 1376 1397 1078 836 744 665 607 489 260 68 0 0 0 0 138 164 296 641 523 408 390 309 342 319 312 247 214 238 225 183 196 154
1706 1760 1820 1869 1938 1960 1884 1804 1853 1783 1832 1818 1820 1887 1982 2155 2146 2173 2161 2207 2025 1904 1857 2092 1831 1759 1969 1994 1810 1578 1740 1840 1891 1796 1926 1570 1571 1584 1495 1374 1448 1531 1589 1611 1592 1550 1501 1564 1616 1454 1640 1395 1408 1356 1486 1057 729 659 558 418 241 224 96 0 10 100 142 210 195 222 236 194 227 238 210 176 193 233 240 123 45 83 110 84 68
1615 1681 1692 1766 1876 1873 1849 1744 1745 1695 1710 1724 1710 1739 1931 2006 1928 1974 2030 1882 1898 1835 1799 1827 1686 1769 1868 1691 1510 1553 1638 1649 1661 1744 1503 1623 1532 1584 1528 1464 1448 1427 1566 1640 1642 1564 1559 1609 1615 1613 1505 1318 818 661 1134 1092 729 522 286 275 264 235 157 74 56 115 99 76 119 182 179 171 207 281 311 283 158 175 150 162 163 154 112 80 78
1455 1530 1588 1654 1697 1714 1695 1614 1664 1635 1657 1624 1654 1652 1909 1819 1868 1908 1847 1763 1710 1742 1629 1538 1596 1586 1525 1518 1508 1482 1414 1443 1639 1494 1355 1444 1478 1409 1548 1470 1385 1356 1436 1552 1589 1612 1586 1617 1678 1507 1278 645 582 570 740 697 498 472 317 275 243 218 232 231 146 108 110 140 136 257 265 305 290 268 169 86 182 196 156 173 138 130 128 156 88
1249 1356 1407 1499 1578 1590 1594 1483 1520 1550 1555 1548 1568 1652 1853 1716 1772 1818 1734 1718 1672 1538 1555 1401 1443 1448 1464 1449 1426 1316 1224 1398 1742 1807 1600 1348 1300 1365 1432 1380 1377 1246 1234 1236 1508 1641 1535 1575 1601 1071 730 638 591 534 491 442 366 334 309 260 221 256 250 271 239 95 89 149 148 263 186 185 165 117 148 211 197 136 48 63 54 49 54 60 60
1040 1148 1251 1434 1532 1453 1428 1352 1442 1478 1458 1433 1502 1705 1752 1654 1705 1726 1724 1672 1526 1425 1443 1290 1342 1382 1398 1416 1329 1154 1160 1405 1565 1435 1244 1222 1148 1074 992 1012 955 949 967 744 718 572 440 695 529 461 558 732 674 560 466 440 418 314 257 212 255 285 307 310 257 98 78 110 200 166 151 113 85 148 206 94 67 81 104 84 19 7 16 30 63
823 1038 1145 1306 1428 1357 1315 1270 1407 1439 1437 1454 1538 1824 1695 1676 1658 1692 1707 1630 1475 1383 1349 1282 1259 1345 1373 1354 1288 1111 1157 1292 1338 1247 1170 1185 1039 938 888 897 832 826 829 609 250 7 6 36 72 154 497 815 796 599 531 481 428 388 277 271 296 340 351 318 239 118 90 129 158 136 186 206 223 163 105 104 76 77 106 97 37 42 49 58 35
697 885 1014 1184 1312 1272 1205 1206 1354 1398 1397 1466 1616 1688 1643 1693 1644 1628 1622 1523 1474 1422 1317 1202 1065 1276 1291 1263 1188 1066 1110 1193 1198 1130 1104 1090 965 870 775 746 650 518 542 525 218 7 0 1 0 399 636 816 768 702 636 577 495 501 333 308 315 342 330 276 220 152 26 85 248 216 215 157 106 107 109 107 130 118 69 28 42 37 25 12 18
707 768 829 961 1164 1117 1128 1135 1272 1362 1394 1427 1572 1619 1657 1661 1611 1636 1462 1421 1384 1352 1310 1163 1097 1154 1206 1141 1047 963 989 1053 1065 1026 1032 987 914 804 717 648 543 400 80 0 10 1 0 105 394 553 592 531 572 739 676 607 540 475 511 381 348 332 279 233 243 179 81 90 114 207 144 100 73 102 104 90 70 47 80 77 66 35 32 39 21
903 720 682 781 935 983 997 1058 1237 1332 1324 1355 1471 1531 1567 1551 1481 1303 1332 1364 1294 1262 1282 1197 1130 1121 1111 1056 957 886 871 913 928 959 969 898 827 789 695 596 507 445 387 6 0 0 0 310 429 344 332 399 456 645 744 631 563 530 532 533 379 312 272 253 247 168 85 123 144 155 134 191 412 108 44 71 85 137 105 58 74 59 53 20 12
1226 809 635 794 858 949 994 1000 1128 1235 1243 1290 1319 1386 1422 1424 1359 1238 1323 1201 1259 1212 1244 1207 1187 1131 1077 1020 944 855 807 800 829 868 890 831 804 773 671 537 457 368 413 337 0 0 0 238 276 271 297 343 412 572 740 647 520 476 440 520 516 399 308 262 198 63 35 19 62 197 190 323 127 94 113 136 155 134 121 90 45 67 57 58 28
1161 967 842 804 898 893 987 997 1035 1082 1159 1219 1194 1212 1314 1362 1294 1254 1262 1191 1249 1291 1284 1256 1240 1157 1076 1038 953 829 750 757 762 765 774 778 751 735 639 515 380 0 347 313 0 0 0 0 0 166 178 259 368 521 676 641 439 375 356 360 347 326 343 233 163 169 45 9 6 48 143 183 201 384 537 291 98 45 40 38 46 62 56 51 74
1211 1053 873 848 942 896 931 999 980 1015 1078 1140 1144 1109 1185 1276 1292 1253 1190 1182 1273 1327 1291 1322 1244 1133 1068 1007 959 802 727 749 746 716 692 683 673 632 508 398 69 0 0 0 0 0 0 0 0 110 87 306 422 591 618 546 419 283 279 271 268 256 198 202 204 46 19 2 0 0 48 272 189 246 242 136 114 79 51 70 50 44 28 105 60
1347 1118 915 863 990 954 924 934 952 975 1033 1050 1047 1066 1111 1217 1273 1170 1090 1078 1233 1273 1242 1290 1190 1100 1074 985 919 852 778 767 762 703 632 590 559 426 362 268 78 0 0 0 0 0 0 13 55 32 12 246 424 496 524 519 437 251 44 213 227 195 7 16 324 74 10 0 0 0 28 291 322 282 108 35 215 119 137 128 149 157 129 122 87
1402 1213 1242 1011 1024 1025 945 934 925 972 1008 965 926 985 1070 1216 1254 1145 1044 983 1091 1187 1160 1229 1184 1130 1062 995 943 907 843 784 776 707 622 575 554 500 397 195 13 0 0 0 0 0 0 0 18 26 177 220 294 364 424 428 318 3 7 176 169 0 169 327 365 317 57 0 0 0 0 68 0 0 39 116 673 578 351 160 137 164 121 104 124
1393 1391 1445 1022 1078 1046 960 949 936 1014 1029 969 849 877 965 1167 1233 1133 1081 1047 1043 1056 1124 1158 1141 1061 1010 1002 981 950 903 795 785 694 626 628 803 926 755 411 288 20 213 273 103 0 0 8 152 206 209 208 247 325 362 188 2 1 0 0 2 260 289 317 384 362 153 0 0 0 0 0 0 7 135 410 1232 1044 819 421 177 154 157 179 167
1594 1662 1542 1256 1046 1052 972 945 933 1054 1095 991 832 782 846 1081 1215 1191 1109 1091 1074 1034 1073 1143 1143 1022 967 1001 1020 991 919 812 766 684 638 685 889 871 838 739 623 356 341 426 355 5 0 97 311 102 238 234 258 306 137 0 0 0 0 253 346 340 338 340 336 360 238 0 0 0 0 0 0 204 420 409 564 832 941 849 824 644 246 265 288
1830 1780 1615 1439 1301 1172 1070 965 979 1037 1084 1047 889 674 773 951 1202 1263 1196 1158 1121 1074 1062 1081 1068 1006 872 956 1045 1054 931 813 748 710 669 722 836 736 706 716 614 499 365 507 451 380 31 102 341 402 385 310 10 279 257 248 0 0 2 24 288 337 358 357 279 319 275 125 5 0 0 0 349 560 239 457 498 586 867 936 873 699 624 742 599
1898 1898 1804 1632 1482 1367 1217 1117 1156 1082 1049 1091 1002 778 719 850 1119 1261 1279 1254 1196 1071 1026 999 1024 969 865 858 978 1054 993 849 798 745 697 718 814 734 766 608 614 459 541 626 523 489 452 445 455 474 428 371 321 297 264 214 1 1 3 0 58 126 294 346 286 274 230 190 99 0 0 47 355 0 229 432 425 425 580 680 700 706 650 446 431
1875 1934 1942 1846 1712 1513 1309 1311 1282 1184 1108 1134 1078 916 830 848 997 1149 1267 1276 1230 1116 962 927 946 977 919 802 896 952 964 876 872 845 741 745 753 742 771 737 669 626 680 669 630 601 560 501 474 452 361 318 278 242 201 46 8 2 6 16 14 8 92 268 309 338 276 232 216 252 226 235 228 0 146 295 309 302 249 199 242 385 429 500 470
2123 2098 2031 1961 1850 1683 1434 1440 1367 1310 1235 1192 1126 1059 955 880 979 1063 1164 1244 985 945 851 893 858 833 856 764 860 967 907 840 835 872 831 815 642 703 787 787 696 663 656 695 654 634 632 558 488 402 338 291 94 216 55 91 48 20 20 9 6 9 189 246 236 240 286 295 267 267 258 212 184 46 55 198 204 98 74 69 62 268 406 451 496
2187 2153 2090 1990 1887 1758 1504 1426 1394 1396 1355 1301 1252 1206 1096 973 958 1023 1089 1080 952 894 887 852 776 821 820 791 849 1038 1029 988 899 859 789 744 556 656 807 798 693 653 670 746 704 578 605 574 450 406 340 256 83 45 63 58 62 72 60 130 62 130 115 30 195 235 247 229 191 271 131 247 220 2 73 124 114 114 217 182 49 167 261 443 561
2194 2197 2141 2015 1885 1756 1583 1341 1394 1454 1446 1426 1418 1345 1226 1098 908 908 894 940 800 822 800 758 798 809 793 870 899 1009 914 1011 883 803 744 528 572 596 816 801 728 735 658 826 782 670 614 502 426 402 349 265 235 66 22 2 18 42 31 38 78 40 19 70 114 100 97 79 162 79 83 148 123 102 129 134 125 234 328 297 61 192 224 321 400
2218 2248 2225 2065 1838 1742 1584 1338 1406 1457 1507 1506 1527 1443 1315 1170 950 859 816 727 737 796 794 747 804 755 770 834 887 790 884 847 738 706 555 514 504 521 768 813 834 765 671 730 725 686 596 507 450 412 323 239 232 152 292 34 3 81 67 16 7 1 8 66 34 43 51 33 42 0 116 154 77 134 240 211 220 316 328 145 153 243 276 300 331
2290 2292 2290 2140 1839 1639 1478 1370 1414 1461 1500 1569 1574 1490 1321 1114 998 1010 1013 951 823 825 765 806 800 724 861 816 821 753 712 605 640 610 435 337 313 415 654 821 596 641 788 740 736 626 522 539 500 474 316 236 274 320 304 103 2 1 0 5 8 8 12 76 53 10 67 104 56 48 54 142 129 12 226 331 314 268 315 153 155 175 223 271 292
2358 2386 2311 2136 1848 1555 1410 1360 1429 1444 1485 1550 1550 1463 1275 1103 948 994 984 874 780 676 708 669 736 786 802 907 800 660 620 688 483 442 386 239 297 396 565 802 640 677 834 801 626 536 570 584 540 505 329 272 307 329 323 329 114 2 0 0 2 5 4 143 68 46 77 113 98 96 6 88 58 8 0 202 226 306 307 49 0 162 188 240 266
2436 2416 2338 2088 1869 1528 1357 1344 1353 1401 1429 1505 1517 1410 1272 1120 870 905 978 842 774 648 659 601 600 681 836 852 781 684 676 702 473 389 318 281 269 325 408 710 800 961 785 681 574 609 606 583 571 524 332 296 301 317 348 309 159 0 0 0 0 239 0 35 47 2 25 88 149 142 64 35 5 0 0 249 260 271 235 1 0 162 198 212 229
2501 2418 2198 1926 1782 1540 1416 1346 1338 1338 1332 1402 1463 1433 1354 1128 852 868 950 909 762 714 540 505 590 776 817 752 739 653 671 678 496 386 300 350 401 437 368 477 761 996 845 630 569 641 652 645 571 460 329 323 290 305 328 286 0 0 0 0 0 0 0 0 2 3 17 40 101 80 52 120 118 112 0 100 0 190 212 0 0 172 202 181 289
2293 2332 1754 1138 1293 1342 1515 1519 1462 1386 1389 1357 1373 1364 1374 1198 929 983 1000 833 703 732 556 541 651 697 720 746 781 735 668 781 640 477 369 462 516 460 346 434 716 972 903 746 639 720 725 678 545 477 324 352 313 288 278 0 2 2 0 0 0 0 0 0 0 0 0 16 43 79 89 122 98 139 68 0 0 0 170 0 0 128 141 216 254
1448 1546 1046 1021 970 1219 1436 1382 1466 1350 1386 1351 1359 1387 1378 1227 966 1009 990 784 829 775 654 584 688 691 694 719 724 673 631 696 669 531 516 554 594 406 319 458 745 1001 887 762 708 763 750 670 548 501 425 420 358 277 4 0 0 0 0 0 0 0 0 0 0 0 0 40 91 76 44 80 99 114 0 0 0 54 0 0 0 92 109 178 191
715 772 1262 1186 958 1465 1568 1515 1532 1398 1325 1325 1298 1302 1278 1157 872 893 866 828 846 756 572 593 687 730 771 762 651 548 512 674 714 672 608 604 650 413 403 573 800 998 928 778 589 779 751 641 627 554 521 506 441 383 325 168 336 120 0 0 0 0 0 0 0 0 0 11 61 50 46 64 49 49 14 1 0 0 0 0 0 0 0 0 0
783 1193 1050 1316 1204 1393 1515 1490 1446 1361 1255 1288 1319 1212 1244 1215 948 873 867 861 828 737 551 578 663 718 744 747 602 511 500 502 555 523 642 694 515 506 583 720 951 971 907 736 620 615 672 703 634 561 560 533 509 429 401 375 377 364 124 0 0 0 0 0 0 0 0 0 8 41 60 78 47 14 38 50 38 0 0 0 0 0 0 0 0
Wind_Speed
25 27 25 29 31 32 34 34 34 35 36 36 35 36 35 36 36 36 35 36 38 39 40 40 41 43 42 43 41 40 40 39 37 35 32 29 28 29 29 28 25 24 22 22 22 22 21 21 22 23 21 22 23 23 24 24 23 21 20 20 21 22 21 21 21 19 19 20 18 18 18 17 16 16 17 18 17 16 16 15 12 8 5 9 14
28 27 26 27 31 32 34 36 37 37 37 37 37 36 36 36 34 34 34 35 37 39 39 40 40 41 42 41 41 40 41 40 38 37 34 31 29 29 28 27 24 23 23 22 20 21 21 21 22 24 24 22 24 23 24 24 23 20 20 19 20 22 22 20 21 20 18 17 18 17 17 16 15 16 18 19 18 17 15 15 14 6 5 13 15
29 28 26 29 32 33 34 36 37 37 37 37 38 36 36 35 34 34 33 34 36 37 38 38 39 40 41 41 40 40 41 41 39 36 32 30 29 28 29 28 25 23 22 22 21 21 23 21 22 22 24 24 24 24 24 22 21 20 19 19 20 21 19 15 19 20 18 18 16 16 15 15 15 16 16 18 17 17 16 14 13 13 8 14 12
32 28 28 31 35 33 34 36 36 38 37 37 37 36 35 35 34 34 34 33 35 36 37 37 38 38 39 40 40 41 43 41 39 38 34 32 31 30 29 27 25 24 23 21 21 22 24 21 19 20 22 21 23 22 21 21 20 18 18 18 18 19 18 17 20 20 17 16 15 12 6 4 7 14 16 17 19 18 17 16 14 14 15 13 14
32 31 30 29 30 32 35 36 36 37 38 38 37 36 35 34 33 33 33 33 34 35 35 37 38 38 39 40 40 42 42 40 39 37 33 31 31 30 28 26 26 24 22 23 23 22 21 21 19 19 19 21 21 20 19 17 16 17 16 16 16 17 18 16 18 15 16 15 13 9 3 2 3 14 17 19 18 18 17 16 15 15 14 14 13
31 31 30 29 29 32 35 35 36 37 37 37 37 36 35 33 32 32 33 33 33 34 35 36 37 38 39 41 41 41 41 39 38 36 31 30 29 29 29 27 24 22 23 22 22 22 21 20 19 19 18 18 18 17 15 14 13 13 13 15 15 16 17 18 18 16 16 15 12 5 4 4 5 8 19 18 18 17 16 15 14 14 14 14 13
33 30 30 29 29 31 34 34 36 36 37 37 37 35 33 32 31 32 33 33 32 34 35 36 36 37 39 40 41 41 40 39 38 34 30 29 30 28 29 28 26 25 23 22 21 22 20 20 19 18 17 17 16 14 13 12 12 12 11 10 12 13 15 17 17 16 15 9 5 4 4 6 6 6 17 16 16 16 16 15 15 15 14 13 14
31 30 30 29 28 31 34 34 35 35 36 36 36 34 32 31 31 32 32 33 32 33 34 35 37 38 40 40 40 40 40 39 38 33 28 27 29 28 27 27 26 25 24 22 21 22 21 20 19 19 17 16 14 12 12 11 11 10 9 7 6 6 9 16 16 15 13 8 6 6 5 4 5 6 15 16 16 16 15 15 15 14 15 14 12
32 31 29 28 27 34 32 32 33 35 35 36 35 33 32 30 30 30 31 32 32 33 34 35 38 39 41 41 40 39 39 38 37 32 29 27 29 29 27 26 25 24 22 21 21 20 20 20 18 17 16 15 14 12 11 10 9 9 7 5 7 11 12 15 14 13 8 7 7 7 7 6 6 nan 14 16 16 16 17 14 12 15 16 14 13
32 30 28 25 25 30 29 31 32 34 34 35 34 32 31 29 29 30 31 32 32 33 34 36 39 40 41 41 40 40 39 38 36 31 28 30 30 29 28 26 25 23 21 20 19 19 19 18 17 16 15 14 13 12 11 10 10 9 9 10 13 15 15 15 15 10 6 6 7 7 7 8 6 7 14 17 18 18 16 14 14 13 13 16 16
32 29 25 23 24 28 28 30 31 33 33 33 32 31 30 30 29 29 30 31 32 32 34 37 39 41 41 41 42 41 39 38 36 31 29 29 29 29 28 28 26 23 21 19 18 17 16 16 15 15 15 13 12 11 11 11 10 10 12 12 14 15 15 15 11 7 6 6 5 6 10 15 8 8 18 19 20 19 18 17 18 18 18 18 18
29 26 23 21 26 28 28 29 31 32 32 32 31 30 29 29 29 29 30 30 31 32 34 37 38 41 41 41 43 42 40 38 35 31 30 29 29 30 29 28 26 23 21 19 18 16 16 16 16 16 15 14 12 12 12 11 10 11 13 14 15 15 14 14 9 nan nan 5 5 6 7 9 8 nan nan 21 20 nan nan 18 18 19 19 19 19
26 24 22 21 23 27 29 29 31 32 32 31 29 28 29 29 29 29 30 28 30 32 35 37 39 39 39 40 42 42 40 38 34 30 29 29 30 29 28 28 26 24 22 20 19 16 15 16 16 16 15 14 14 13 12 12 11 11 14 15 16 16 15 14 nan nan nan nan nan nan nan nan nan 19 20 21 21 20 20 20 20 21 21 20 20
27 27 26 25 25 31 30 29 29 29 29 28 28 27 27 28 29 29 28 28 29 32 34 37 38 38 38 38 39 40 39 36 32 30 30 30 30 29 29 28 25 24 22 21 19 16 15 16 16 15 14 14 15 14 14 13 12 12 15 16 16 16 16 12 9 nan nan nan 5 nan 8 8 10 19 21 22 21 20 20 22 22 22 22 21 20
30 31 29 27 26 26 31 27 26 26 26 26 25 25 25 26 27 27 27 29 31 32 35 38 38 38 39 38 37 38 38 36 33 30 29 30 30 30 29 27 25 24 23 21 18 16 15 16 15 14 15 14 14 15 15 14 14 16 17 16 16 16 15 nan nan nan nan 5 6 8 9 9 16 17 20 21 22 20 20 20 21 22 21 21 21
31 32 31 28 26 24 22 25 25 24 24 24 23 23 24 24 25 26 27 29 31 34 36 37 37 38 38 37 36 36 37 34 31 28 29 30 30 30 29 27 26 25 25 22 19 17 16 15 14 15 14 13 14 16 14 14 20 20 17 16 16 16 15 nan nan nan nan 6 7 9 10 11 18 18 20 21 21 21 20 20 21 21 21 21 21
30 31 31 29 27 23 21 19 20 24 22 22 21 22 23 23 24 25 27 30 33 35 36 36 37 38 38 37 36 34 33 32 29 28 29 30 30 29 28 26 26 26 26 23 20 17 16 14 15 14 13 14 16 14 15 17 20 20 18 18 17 16 15 nan nan nan nan 7 nan nan 9 8 15 18 20 19 20 20 20 19 19 20 20 20 21
29 30 29 28 26 23 21 18 18 18 17 20 21 22 22 23 24 26 29 31 33 35 35 35 36 38 38 37 35 34 33 30 28 27 29 29 29 28 27 26 25 26 26 25 22 18 16 15 15 14 13 15 16 15 16 17 17 18 18 17 16 16 15 13 nan nan nan 7 nan 7 8 12 16 17 19 19 19 20 20 20 20 19 19 20 20
33 34 31 30 27 24 21 19 19 19 19 18 18 21 26 26 26 29 31 33 34 35 35 35 36 37 36 35 35 34 31 29 27 27 29 29 28 27 27 26 25 26 26 26 23 19 16 16 16 15 14 15 16 16 14 15 17 18 18 16 16 16 15 10 nan nan nan nan nan nan 7 11 13 17 19 19 19 19 19 20 19 19 19 19 20
38 38 36 34 32 27 23 22 21 21 21 20 20 22 26 30 30 32 33 34 36 35 34 34 35 36 35 35 34 29 28 25 28 25 29 29 27 25 27 25 25 25 26 26 24 20 17 17 17 15 14 14 16 16 15 16 18 19 18 17 17 15 nan nan nan nan nan 7 6 6 10 14 15 16 17 18 18 19 19 19 18 19 19 19 19
34 34 34 34 34 30 26 23 21 20 20 20 21 22 26 33 32 34 35 37 37 35 33 34 34 34 33 31 29 23 20 20 21 20 27 23 25 28 26 25 25 24 25 26 25 21 19 18 17 15 13 14 15 16 15 19 21 21 19 18 17 10 nan nan nan 8 8 7 7 7 14 14 15 16 16 17 18 18 19 18 nan nan 19 nan nan
33 31 28 29 30 28 26 24 22 21 21 20 18 18 21 27 27 28 29 32 33 32 30 29 30 28 30 28 24 21 18 18 19 22 20 22 23 27 27 25 25 24 24 25 25 22 20 19 17 14 12 14 15 12 13 19 23 22 20 17 11 9 10 nan nan 9 nan nan 8 9 15 15 16 17 17 17 16 17 18 18 19 19 19 nan nan
31 29 26 25 25 25 23 23 24 23 22 21 17 15 17 17 18 20 22 25 25 26 25 27 26 26 25 24 22 20 18 18 18 20 20 24 23 26 27 27 25 23 22 23 23 22 20 19 17 14 13 15 13 12 14 14 16 23 19 12 9 10 11 10 9 9 8 8 8 14 14 16 17 17 16 nan 18 18 18 19 19 19 19 20 nan
30 28 26 24 24 23 23 21 23 23 22 21 14 10 13 15 18 20 21 21 21 21 22 24 24 23 22 22 21 19 18 18 21 25 24 20 20 24 27 27 25 24 22 19 21 22 21 19 17 14 10 9 11 14 15 14 14 14 12 12 11 11 12 11 9 nan nan 9 9 15 16 16 16 16 17 18 18 18 nan nan nan nan nan nan nan
24 24 23 24 24 24 23 22 20 20 20 21 17 15 19 19 20 22 22 22 21 20 21 21 20 20 20 20 19 18 18 18 18 19 20 19 18 18 21 20 20 19 19 17 18 18 17 16 13 11 9 8 11 14 15 13 13 13 12 14 14 12 11 11 11 nan nan 9 10 16 17 16 nan 17 18 nan nan nan 19 nan nan nan nan nan nan
19 23 23 24 24 24 24 23 23 20 20 21 21 22 24 19 19 22 23 22 22 20 19 20 18 17 17 18 18 19 18 18 19 20 19 18 18 17 18 19 19 18 18 17 17 nan nan nan nan 11 10 8 11 13 12 13 13 13 12 14 15 13 12 11 11 10 nan 10 11 15 14 15 16 17 18 18 nan nan 20 nan nan nan nan nan nan
19 22 24 24 25 26 25 23 22 22 23 24 23 22 20 17 18 22 24 23 23 22 20 19 17 14 18 18 17 17 18 19 19 19 19 18 18 16 16 16 17 19 18 18 16 nan nan nan nan 10 9 10 12 13 11 11 14 14 13 14 14 13 12 11 10 9 nan nan 11 17 16 16 15 16 18 18 19 20 nan nan nan nan nan nan nan
21 21 24 24 25 25 23 22 22 23 24 26 25 23 21 20 20 21 23 23 24 24 21 20 18 15 18 18 16 16 17 18 18 18 18 18 17 15 15 16 17 19 nan nan nan nan nan 15 13 9 10 12 14 12 11 12 13 14 14 13 13 13 12 12 11 10 nan nan 13 17 18 17 nan 15 17 nan nan nan nan nan nan nan nan nan nan
19 19 21 23 23 23 22 23 22 23 24 26 26 24 22 20 20 22 22 23 23 24 22 21 19 17 18 17 17 17 16 18 18 18 18 17 17 17 16 16 16 18 18 nan nan nan nan 15 13 11 12 15 15 13 11 11 12 11 14 13 13 13 13 12 12 12 nan 13 14 17 20 20 16 15 nan nan nan 18 19 nan nan nan nan nan nan
16 17 18 20 21 22 22 22 21 22 23 25 25 23 21 21 22 23 23 24 22 23 23 21 20 18 18 17 17 17 17 18 18 18 18 18 18 17 17 16 15 16 17 16 nan nan nan 16 14 13 14 15 15 12 10 11 11 10 11 13 13 13 12 12 12 nan nan nan nan 16 21 21 20 nan 16 16 16 16 17 nan nan nan nan nan nan
15 14 15 16 19 21 22 22 22 22 23 24 23 22 20 20 23 25 25 25 24 22 21 21 20 18 18 18 18 18 19 18 19 19 18 18 18 17 16 15 14 nan 15 14 nan nan nan nan nan 14 16 16 15 12 11 11 11 11 10 11 13 13 12 11 11 12 nan nan nan nan 15 18 17 17 16 16 nan nan nan nan nan nan nan nan nan
12 11 13 15 19 21 23 22 22 22 22 22 22 22 20 20 23 26 27 27 26 23 21 20 20 19 19 19 19 19 19 19 20 19 18 18 17 16 15 14 nan nan nan nan nan nan nan nan nan 15 nan 16 15 13 11 13 12 11 10 11 12 12 11 11 10 nan nan nan nan nan nan 13 16 19 20 18 15 nan nan nan nan nan nan 17 nan
8 11 14 17 19 21 23 23 22 21 22 22 22 21 20 20 22 25 28 28 27 26 24 22 21 20 20 20 20 20 21 21 20 18 18 18 16 15 14 12 nan nan nan nan nan nan nan nan nan nan nan 17 16 14 13 13 12 10 nan 10 11 11 nan nan 10 nan nan nan nan nan nan 13 14 17 17 nan 11 12 13 14 15 16 16 16 nan
12 14 17 18 19 20 21 22 21 21 21 22 22 21 20 21 22 25 27 28 27 26 26 25 23 21 20 21 21 21 22 22 21 19 18 17 15 14 12 12 nan nan nan nan nan nan nan nan nan nan 17 17 16 14 14 14 12 nan nan 10 11 nan 10 11 10 10 nan nan nan nan nan nan nan nan nan 11 9 10 12 12 14 14 14 15 16
15 16 17 18 20 21 21 21 21 20 21 23 23 22 21 22 23 23 25 26 26 26 26 27 25 23 22 22 21 21 23 22 20 19 18 17 15 14 13 12 13 nan 12 14 15 nan nan nan 17 18 17 17 17 15 14 14 nan nan nan nan nan 9 9 9 9 10 12 nan nan nan nan nan nan nan 11 10 11 13 11 11 12 12 13 13 13
14 14 16 19 21 22 22 23 21 21 22 24 24 23 23 23 23 22 23 24 24 25 27 27 26 25 23 23 22 22 23 22 21 20 18 16 15 15 13 14 14 13 13 15 15 nan nan nan 15 18 18 18 19 17 15 nan nan nan nan 11 11 9 9 8 9 10 11 nan nan nan nan nan nan 9 10 10 10 10 12 11 11 11 11 10 11
16 15 16 19 21 22 23 23 23 23 25 25 24 23 24 23 22 22 23 23 23 24 26 27 27 26 25 25 23 23 24 23 21 19 17 14 14 15 15 15 15 13 13 14 14 14 nan 16 15 14 18 18 nan 18 14 12 nan nan nan nan 11 9 8 8 8 9 9 9 nan nan nan nan 8 11 10 10 10 10 11 12 12 12 11 10 9
17 17 16 18 20 21 22 23 22 23 24 24 24 24 23 22 21 22 22 23 23 25 25 25 26 27 27 26 24 23 24 23 21 19 16 14 15 15 16 18 16 15 15 14 13 14 15 17 17 16 17 20 18 16 14 12 nan nan nan nan nan 9 8 8 7 8 9 8 nan nan nan nan 8 nan 9 9 10 10 10 11 13 12 9 8 9
19 20 20 20 21 21 22 23 23 22 22 22 23 25 24 22 22 22 23 23 25 25 25 25 24 26 26 26 24 22 23 22 21 18 15 15 15 15 16 18 17 15 15 15 15 14 16 16 18 17 18 18 18 15 14 nan nan nan nan nan nan nan nan 8 8 8 8 7 6 7 7 7 8 nan 8 9 8 9 9 9 9 9 8 8 7
21 23 23 22 22 23 23 23 21 21 22 23 25 26 25 24 23 22 22 23 25 24 24 24 26 25 24 24 22 21 23 22 20 18 16 16 14 13 17 19 17 16 16 16 14 13 15 18 18 19 19 20 nan 16 nan nan nan nan nan nan nan nan 11 9 9 8 8 7 7 7 7 7 7 nan nan 7 7 nan nan nan nan 8 8 7 4
23 24 25 24 24 24 24 23 21 22 23 25 26 27 26 27 25 23 21 23 24 23 23 24 25 26 24 23 22 22 23 23 21 18 16 16 14 14 17 18 17 16 16 14 13 13 15 18 19 17 19 19 nan nan nan nan nan nan nan 13 nan 10 10 nan 9 9 8 8 8 4 7 9 7 nan nan 5 6 6 7 7 nan 8 8 7 7
24 26 26 26 25 25 24 23 22 22 24 25 26 26 25 25 25 23 24 24 25 25 23 24 23 26 24 23 23 23 23 22 21 18 18 17 15 15 16 17 18 17 16 16 15 15 16 18 20 20 16 17 16 nan nan nan nan nan nan nan nan nan nan nan 10 nan nan nan 7 nan nan 7 7 6 6 6 6 6 6 6 nan 8 8 7 6
27 29 28 28 26 25 25 24 23 25 26 26 27 27 26 26 24 23 24 24 23 23 25 26 25 26 25 22 21 22 21 21 21 19 19 18 17 18 17 17 18 18 18 17 16 16 15 17 18 19 18 17 18 14 11 nan nan nan nan nan nan nan nan nan nan nan nan nan nan nan 7 7 nan 7 6 6 7 7 6 6 6 8 9 8 6
27 29 30 29 26 25 24 24 24 27 28 26 27 29 30 28 25 25 25 23 22 22 24 26 28 30 23 21 21 21 20 22 23 19 18 19 19 18 18 18 21 18 18 17 16 16 16 16 18 18 19 18 15 13 11 12 nan nan nan nan nan nan nan nan nan nan nan 10 nan nan nan 8 8 nan 7 8 7 7 7 6 7 8 9 8 7
27 29 31 31 27 27 24 24 24 26 27 26 28 31 32 32 28 28 29 27 22 24 22 22 25 24 21 19 20 23 22 20 17 16 16 17 18 18 18 18 20 18 19 18 16 15 14 16 17 18 16 17 15 13 10 13 10 nan nan nan nan nan nan 8 nan nan nan 10 nan nan nan nan nan nan nan 8 9 8 7 nan nan 9 10 10 9
28 29 31 32 29 26 23 22 23 24 25 25 28 31 31 32 31 30 29 26 24 22 21 20 22 20 19 21 23 24 20 17 17 16 15 16 16 16 17 18 19 20 19 17 17 17 17 17 16 17 16 15 15 14 13 12 10 nan nan nan nan 9 nan nan nan nan nan nan 10 11 nan nan nan nan nan 10 10 8 8 nan nan 10 10 10 9
29 31 31 30 29 27 22 20 21 21 22 23 26 29 30 29 29 28 28 27 25 20 19 18 18 19 20 18 21 23 18 15 15 17 16 17 17 17 17 18 19 20 19 19 18 17 17 16 17 17 16 16 16 15 13 12 nan nan nan nan nan nan nan nan nan nan nan nan 11 nan nan 11 11 10 nan nan nan 9 9 nan nan 11 11 10 9
25 32 36 35 30 27 26 24 25 22 19 20 22 25 27 25 25 24 23 22 21 21 19 15 16 16 16 17 21 21 18 15 17 19 19 19 20 20 20 20 20 20 19 18 18 18 18 18 17 16 17 15 15 15 15 nan nan nan nan nan nan nan nan nan nan nan nan nan nan nan nan 12 nan 11 nan nan nan nan 10 nan nan 11 10 10 9
34 40 38 33 28 22 16 14 20 18 17 18 19 21 22 24 23 22 19 17 19 18 16 16 16 15 15 18 20 21 20 19 21 22 23 23 21 21 20 20 20 20 19 19 19 20 19 19 17 17 16 15 14 17 nan nan nan nan nan nan nan nan nan nan nan nan nan nan nan nan nan nan nan 12 nan nan nan nan nan nan nan nan 10 10 10
33 36 33 28 23 22 20 22 22 20 18 20 20 20 19 21 21 19 18 17 21 20 16 14 14 14 15 18 20 23 24 25 26 28 24 20 20 20 20 19 19 20 19 19 21 22 21 19 17 15 15 15 16 18 17 16 15 15 nan nan nan nan nan nan nan nan nan nan nan nan nan nan nan nan nan nan nan nan nan nan nan nan nan nan nan
31 35 35 32 22 18 21 24 26 27 24 22 22 20 20 20 19 18 17 18 20 22 18 14 15 14 14 17 22 27 29 27 28 26 21 19 19 20 20 19 20 21 20 20 21 21 21 20 18 17 16 16 17 18 19 18 18 17 15 nan nan nan nan nan nan nan nan nan nan nan nan nan nan nan nan nan nan nan nan nan nan nan nan nan nan
Wind_Direction
304 307 304 305 304 305 304 301 300 300 298 296 294 294 295 297 298 300 302 305 307 307 308 310 311 313 315 315 314 313 311 311 311 312 313 312 311 311 310 308 307 305 307 306 305 306 302 303 302 293 288 289 288 285 289 287 285 282 280 278 283 287 284 281 281 275 270 266 267 263 266 269 269 271 270 261 258 251 248 247 241 235 230 244 251
306 304 299 300 303 303 302 301 300 300 298 297 296 296 297 298 299 301 304 306 307 307 308 309 310 312 313 313 312 311 310 310 312 312 312 313 313 312 310 307 306 308 308 308 304 302 301 301 298 294 295 295 289 291 286 282 283 283 283 285 280 277 280 285 285 282 278 268 264 262 261 264 265 262 255 256 254 253 252 251 248 235 232 249 250
296 299 296 299 302 300 298 299 300 299 298 297 297 297 298 299 300 303 305 305 305 306 307 308 309 311 311 311 312 311 310 309 311 312 311 311 309 309 308 307 307 307 309 309 306 303 300 300 296 286 286 289 289 282 278 279 277 277 279 275 276 280 285 284 282 278 272 273 272 265 254 249 252 254 255 258 256 252 251 249 248 247 239 245 247
298 296 296 299 301 299 297 299 299 300 298 297 297 298 298 299 300 303 303 304 304 305 306 307 309 310 311 311 312 311 309 310 312 312 311 309 308 308 310 310 310 310 310 307 306 306 300 295 290 286 285 286 282 278 280 282 280 281 282 281 283 287 283 281 278 280 278 276 271 266 248 224 260 261 254 252 250 246 245 243 243 244 245 245 245
297 296 296 296 297 297 297 298 299 299 299 298 298 298 297 298 299 300 301 302 303 305 306 307 309 310 310 310 311 310 310 311 313 312 309 308 309 309 307 308 310 309 309 309 307 304 300 295 291 287 284 284 284 283 282 280 275 271 274 276 277 284 286 282 277 271 278 271 265 268 272 277 229 249 249 245 244 243 240 240 239 240 243 245 245
295 295 294 293 293 294 295 297 299 300 298 298 297 296 296 297 298 298 300 302 303 304 306 307 308 309 309 309 310 310 311 311 311 310 309 307 307 307 308 309 308 307 308 307 304 306 300 294 290 289 286 283 280 277 273 270 265 262 264 272 283 282 283 284 285 284 274 269 261 259 238 222 217 228 246 242 238 234 235 237 237 238 240 241 242
293 291 291 290 289 292 295 297 298 299 299 297 296 294 295 295 297 299 301 302 303 305 306 307 307 307 307 308 309 311 311 310 309 310 309 308 308 309 308 309 310 310 307 304 305 304 298 296 294 294 292 286 279 271 260 254 247 242 244 258 284 285 280 281 283 285 282 284 283 275 250 233 233 235 246 247 242 236 234 234 235 237 240 244 246
287 288 288 287 287 294 296 298 299 299 297 295 294 294 294 294 297 300 301 303 303 304 305 307 306 305 306 307 310 311 310 309 310 311 310 308 307 307 307 307 308 307 305 304 303 305 303 302 302 301 297 290 281 270 261 250 243 236 235 247 278 295 290 291 288 286 282 295 300 293 282 262 250 244 249 248 246 241 238 238 239 242 246 247 245
288 289 288 288 290 300 299 298 297 297 295 293 293 294 294 296 298 298 301 302 302 304 306 306 304 304 305 308 310 310 309 309 310 311 308 302 303 303 303 304 303 301 300 301 302 301 301 303 304 301 300 289 277 268 258 251 241 232 227 243 306 314 309 296 287 280 286 294 296 294 287 284 279 nan 261 258 253 248 240 231 233 245 246 248 252
289 288 291 291 295 301 298 297 296 295 293 293 294 294 295 297 297 298 300 301 303 305 306 305 304 305 306 309 310 310 309 309 310 310 305 300 303 306 307 306 305 304 303 302 302 302 304 305 304 298 286 278 270 261 254 243 231 228 245 267 303 303 300 294 283 279 284 285 290 297 292 278 276 270 266 262 262 257 252 253 248 246 248 246 249
289 292 295 296 300 301 298 295 294 295 294 295 296 296 296 296 297 297 299 302 305 307 306 306 305 307 307 309 310 309 309 308 309 308 304 303 306 307 307 304 303 303 301 301 300 297 297 296 295 290 282 273 266 260 248 239 231 244 260 267 283 290 291 287 280 281 270 264 270 276 273 264 263 262 265 263 257 254 251 246 246 246 249 252 249
294 296 297 296 303 300 298 297 297 296 296 297 298 298 297 296 298 300 302 305 308 308 306 306 306 307 307 308 310 309 308 307 308 307 305 306 307 307 303 299 302 302 302 301 299 298 297 297 294 291 283 273 262 250 243 240 241 260 273 277 281 283 285 283 286 nan nan 254 265 271 271 263 262 nan nan 263 256 nan nan 254 249 248 249 246 247
299 297 296 296 295 301 300 299 298 297 298 300 300 301 300 298 301 302 306 306 307 306 305 304 304 306 306 308 310 309 308 307 308 307 306 307 305 301 299 301 303 303 303 301 300 299 298 295 292 289 288 274 259 253 248 244 248 267 282 286 288 289 290 286 nan nan nan nan nan nan nan nan nan 267 264 261 260 257 253 247 246 245 246 247 244
300 299 297 295 296 303 300 298 296 299 301 302 303 303 302 301 304 305 306 305 304 303 302 303 303 304 305 307 309 309 307 307 308 307 306 304 301 302 301 302 304 302 301 300 301 299 295 291 289 291 285 269 258 257 254 257 264 282 291 296 297 296 294 295 293 nan nan nan 264 nan 255 253 254 258 261 262 259 258 255 251 250 247 245 245 246
298 297 294 294 296 295 302 299 300 303 303 304 304 304 302 300 300 302 302 303 302 300 301 302 303 303 305 306 307 307 307 307 308 306 303 303 302 301 303 304 303 301 300 301 300 298 292 289 291 289 281 274 266 256 258 274 287 297 301 302 299 296 296 nan nan nan nan 265 258 256 253 256 262 263 266 264 262 260 257 254 251 250 249 247 248
295 295 293 293 293 295 295 306 307 306 305 307 305 300 298 298 300 302 301 300 299 300 300 300 302 303 304 305 305 306 307 307 306 302 302 302 301 303 303 305 303 302 300 301 300 296 290 287 286 281 278 277 265 255 257 279 297 300 300 297 291 289 291 nan nan nan nan 262 260 256 255 256 265 266 261 262 259 256 256 254 253 253 252 251 250
294 295 297 296 295 295 297 299 306 311 309 306 300 296 296 300 302 300 297 297 298 298 298 299 299 300 302 304 304 304 302 304 303 300 302 301 301 303 304 304 304 302 301 301 300 294 289 284 278 277 276 270 265 259 262 285 296 297 293 291 290 288 290 nan nan nan nan 263 nan nan 261 262 269 266 262 263 262 259 256 256 256 252 252 252 251
298 297 296 298 298 297 295 296 305 305 304 305 302 301 303 303 300 296 294 293 294 295 295 295 296 298 301 303 303 299 298 301 301 300 298 299 302 304 304 304 303 302 302 302 299 292 287 279 273 272 266 265 268 267 272 285 290 290 288 287 290 291 289 283 nan nan nan 257 nan 260 262 274 276 275 273 269 266 265 263 261 259 258 257 257 257
309 309 303 303 301 296 299 303 310 312 310 301 298 308 312 304 298 292 290 291 291 291 292 293 295 296 299 300 301 300 299 300 297 297 296 299 302 303 304 303 303 302 301 301 296 290 284 275 270 265 262 264 270 273 275 282 293 291 287 285 288 290 284 273 nan nan nan nan nan nan 279 284 277 274 277 277 273 269 268 267 264 261 261 260 258
311 314 314 314 308 305 309 313 313 311 305 303 306 306 306 299 293 291 290 289 288 287 288 289 291 294 297 300 303 301 301 299 299 296 298 299 300 302 303 301 301 300 299 297 293 288 283 275 268 263 260 261 267 272 287 302 302 295 287 285 287 281 nan nan nan nan nan 252 249 262 281 280 281 280 275 273 273 270 265 263 264 262 260 261 263
310 317 319 319 314 309 306 293 291 292 291 293 294 295 295 295 288 291 290 287 284 285 284 285 287 290 293 294 291 287 289 291 291 290 297 294 299 303 302 300 297 297 295 293 289 285 282 275 268 264 258 257 259 268 293 308 301 293 287 282 279 274 nan nan nan 256 251 250 254 263 282 278 277 277 277 275 271 269 270 270 nan nan 264 nan nan
317 319 322 320 311 301 296 286 283 284 283 286 286 288 291 289 278 281 282 283 283 282 278 277 278 275 288 282 281 285 283 283 286 291 286 294 297 303 301 298 295 292 291 289 285 284 280 276 272 266 259 251 251 257 275 300 297 291 287 282 283 285 272 nan nan 254 nan nan 256 261 273 276 275 272 273 274 274 274 273 272 269 266 265 nan nan
318 320 322 321 304 296 294 286 286 284 284 283 280 295 303 287 281 282 285 288 283 273 268 272 264 268 267 269 274 276 277 276 279 284 288 297 299 302 299 297 292 290 287 284 283 283 280 276 274 269 256 250 251 258 271 284 290 293 291 287 291 283 273 265 259 259 258 255 262 286 288 282 280 278 278 nan 275 274 271 268 266 268 267 266 nan
325 324 319 306 293 288 287 281 289 286 287 279 263 286 301 294 292 289 287 286 276 266 261 262 261 260 258 260 267 271 270 272 289 293 295 291 298 302 299 296 292 288 282 275 280 283 279 276 273 265 253 249 255 263 272 278 282 289 296 295 289 283 277 269 261 nan nan 258 262 285 284 282 283 286 286 282 278 277 nan nan nan nan nan nan nan
318 303 294 295 287 282 279 278 284 287 287 276 260 274 290 290 291 288 287 286 277 263 257 255 255 250 250 255 262 263 266 272 272 274 276 284 287 291 289 283 279 277 274 270 272 272 270 272 269 262 256 254 257 265 274 276 281 289 295 295 289 280 270 264 264 nan nan 257 261 277 284 286 nan 284 283 nan nan nan 277 nan nan nan nan nan nan
295 293 287 286 282 277 273 271 277 278 281 279 275 290 298 295 292 286 283 279 274 265 257 254 249 248 251 255 255 258 260 264 265 271 275 279 283 286 287 284 279 279 276 273 274 nan nan nan nan 270 262 258 261 266 269 281 285 285 286 287 286 279 272 259 258 262 nan 263 273 288 290 294 295 290 289 285 nan nan 277 nan nan nan nan nan nan
298 288 279 276 273 274 275 276 279 280 277 278 284 294 302 296 285 281 277 275 271 265 260 255 251 245 250 253 257 259 260 262 265 269 274 276 280 280 282 283 283 283 281 279 276 nan nan nan nan 272 264 262 261 263 264 273 282 284 281 282 282 286 279 258 257 267 nan nan 277 293 288 285 287 293 289 287 284 280 nan nan nan nan nan nan nan
292 282 276 275 274 274 278 280 279 278 277 282 288 296 301 298 288 284 274 276 275 268 260 259 256 247 248 252 255 260 262 261 263 266 269 271 275 273 271 277 282 283 nan nan nan nan nan 273 274 268 260 264 264 264 264 269 274 280 281 282 284 289 286 273 265 273 nan nan 265 280 284 289 nan 282 285 nan nan nan nan nan nan nan nan nan nan
297 283 279 277 278 277 278 281 280 278 277 280 285 292 295 290 285 278 275 276 270 269 267 263 261 251 251 258 262 268 264 262 262 263 263 267 268 268 268 270 274 278 276 nan nan nan nan 277 272 265 260 264 271 272 271 267 268 275 284 284 287 290 293 283 272 271 nan 270 274 284 289 288 281 282 nan nan nan 282 277 nan nan nan nan nan nan
300 289 281 285 285 281 279 278 279 279 279 279 284 291 292 288 282 278 276 275 268 269 271 267 261 257 258 264 269 272 271 267 264 263 267 266 266 263 263 263 269 269 272 276 nan nan nan 276 270 267 266 269 276 281 278 273 265 265 274 283 284 287 290 290 277 nan nan nan nan 282 287 274 275 nan 287 289 287 282 276 nan nan nan nan nan nan
296 299 288 289 288 287 284 282 281 285 283 284 288 291 291 287 281 278 276 275 273 272 270 269 265 262 265 267 268 269 268 265 266 267 265 266 265 265 263 256 254 nan 264 270 nan nan nan nan nan 276 276 275 278 280 276 268 262 259 264 274 278 278 283 281 275 266 nan nan nan nan 277 280 278 278 274 271 nan nan nan nan nan nan nan nan nan
304 309 289 286 288 290 288 286 286 289 291 292 292 294 295 290 282 279 278 277 278 274 272 271 270 268 268 268 266 266 264 263 265 265 266 265 265 265 259 253 nan nan nan nan nan nan nan nan nan 268 nan 275 275 276 264 262 257 257 263 270 273 278 278 277 273 nan nan nan nan nan nan 269 278 275 269 264 267 nan nan nan nan nan nan 273 nan
299 288 287 288 290 289 289 289 291 295 299 301 298 294 292 286 281 279 277 279 279 277 276 272 270 268 267 266 265 263 261 265 264 265 263 264 261 261 260 253 nan nan nan nan nan nan nan nan nan nan nan 268 272 271 260 252 255 252 nan 258 265 271 nan nan 270 nan nan nan nan nan nan 270 271 276 275 nan 275 278 277 274 272 271 271 271 nan
281 275 281 287 284 283 283 286 294 301 301 297 294 293 290 285 281 278 278 280 279 280 279 274 271 268 266 266 265 261 261 261 264 259 257 261 258 257 260 254 nan nan nan nan nan nan nan nan nan nan 271 275 278 272 264 259 252 nan nan 250 255 nan 265 265 270 277 nan nan nan nan nan nan nan nan nan 273 258 272 272 274 271 270 269 267 269
255 272 289 289 287 286 286 286 296 299 297 296 294 292 290 289 287 284 281 281 280 280 277 274 271 268 265 265 265 261 259 260 259 260 259 257 260 256 254 253 241 nan 244 250 259 nan nan nan 272 268 264 266 268 261 255 254 nan nan nan nan nan 259 254 263 270 279 283 nan nan nan nan nan nan nan 261 249 257 263 261 267 273 271 266 268 271
260 265 271 279 283 283 285 286 295 301 298 296 295 297 298 295 291 289 285 284 282 278 274 272 270 267 264 263 263 258 255 256 254 253 258 259 259 255 250 242 227 228 239 249 255 nan nan nan 267 274 271 267 267 258 251 nan nan nan nan 248 251 257 258 261 271 279 287 nan nan nan nan nan nan 269 261 254 249 253 259 253 244 246 266 273 274
268 267 272 274 275 278 282 287 300 304 298 298 302 304 301 298 296 291 289 285 282 278 275 273 270 266 262 260 261 259 255 252 249 250 256 257 252 247 244 231 221 233 247 250 256 261 nan 265 262 262 276 271 nan 263 255 249 nan nan nan nan 246 257 255 263 273 287 287 285 nan nan nan nan 284 269 253 252 246 242 247 251 252 254 245 239 243
267 264 262 271 274 275 278 285 291 296 296 302 304 298 293 289 286 280 281 284 282 280 278 275 271 265 261 262 263 261 255 249 246 248 251 251 250 247 237 229 225 235 249 253 257 256 259 267 264 255 262 269 267 268 263 259 nan nan nan nan nan 257 262 267 273 283 289 292 nan nan nan nan 262 nan 253 249 246 241 234 233 243 245 257 247 232
264 263 260 260 264 268 269 279 289 292 294 295 289 283 285 285 281 279 280 281 277 271 271 266 262 261 262 264 266 259 252 247 244 247 247 246 250 242 232 226 229 237 248 252 252 252 255 257 267 259 249 248 263 260 261 nan nan nan nan nan nan nan nan 267 261 272 276 279 288 297 283 267 260 nan 251 251 248 246 236 227 229 229 234 263 242
269 268 270 269 272 272 271 277 288 293 288 284 285 288 288 288 283 279 281 278 273 278 281 276 263 256 255 265 265 251 242 241 242 244 243 244 251 244 226 221 229 238 248 251 250 253 258 258 259 263 257 252 nan 255 nan nan nan nan nan nan nan nan 258 264 268 266 262 259 257 272 279 266 264 nan nan 255 257 nan nan nan nan 222 224 228 236
275 279 280 279 281 283 284 290 292 292 291 291 296 297 296 288 283 285 284 276 277 276 284 278 270 258 252 263 257 238 229 233 236 240 238 239 246 235 222 222 234 240 247 251 249 248 250 257 257 251 263 257 nan nan nan nan nan nan nan 258 nan 259 270 nan 272 272 272 265 270 275 267 261 263 nan nan 244 242 232 229 226 nan 220 218 212 210
287 288 290 291 292 293 294 296 291 293 291 291 295 296 294 293 287 284 273 274 275 290 289 277 267 260 256 259 252 224 220 229 231 233 232 234 236 228 225 233 238 241 240 242 241 243 246 251 255 248 240 254 250 nan nan nan nan nan nan nan nan nan nan nan 274 nan nan nan 255 nan nan 260 256 239 224 227 226 227 225 221 nan 218 212 213 212
291 294 296 298 302 302 300 302 298 294 286 288 289 290 282 280 281 279 281 272 276 285 274 261 262 261 259 260 251 228 222 226 228 231 230 228 229 230 231 233 237 242 243 243 245 247 250 257 260 261 252 230 236 248 259 nan nan nan nan nan nan nan nan nan nan nan nan nan nan nan 239 247 nan 225 214 225 229 219 219 222 217 212 212 214 212
290 294 297 302 302 301 302 304 300 292 288 292 286 280 281 277 276 281 275 272 273 275 270 263 251 248 256 260 245 233 234 226 224 225 229 229 228 228 230 232 239 237 244 246 245 247 247 250 251 253 256 249 241 245 241 235 nan nan nan nan nan nan nan nan nan nan nan 262 nan nan nan 239 235 nan 227 231 227 229 216 216 225 220 220 221 216
292 297 299 302 298 303 304 302 295 293 291 294 288 284 282 280 282 280 278 277 280 280 276 270 259 255 258 252 233 231 234 228 229 228 229 231 227 227 232 234 243 241 240 244 245 249 252 254 255 253 253 257 252 243 244 240 257 nan nan nan nan nan nan 251 nan nan nan 257 nan nan nan nan nan nan nan 240 236 238 233 nan nan 228 225 224 218
300 302 301 299 297 293 290 291 286 286 292 294 290 287 289 291 292 292 292 292 293 296 300 280 258 255 255 241 233 233 237 222 224 228 226 230 233 234 237 238 236 238 240 243 241 239 245 247 253 253 249 241 261 256 252 236 248 nan nan nan nan 273 nan nan nan nan nan nan 265 271 nan nan nan nan nan 251 254 251 244 nan nan 230 226 225 220
301 297 294 289 282 274 271 267 261 266 279 284 286 283 285 291 297 300 298 298 301 307 299 268 252 250 251 247 237 236 237 232 226 232 229 233 236 236 239 238 236 236 236 237 238 242 244 247 245 246 248 246 244 260 263 256 nan nan nan nan nan nan nan nan nan nan nan nan 261 nan nan 263 261 255 nan nan nan 258 248 nan nan 230 228 228 227
280 278 263 252 245 241 241 242 244 244 251 264 277 280 285 289 293 295 295 293 296 305 307 285 262 259 255 244 240 236 239 238 236 234 229 229 233 236 238 236 234 233 233 234 239 238 240 236 242 245 248 252 256 260 259 nan nan nan nan nan nan nan nan nan nan nan nan nan nan nan nan 253 nan 257 nan nan nan nan 255 nan nan 239 238 236 236
249 256 254 250 248 251 263 279 275 270 268 267 273 281 287 291 294 293 292 288 280 276 288 280 270 264 257 240 236 235 235 237 236 236 229 220 229 239 238 236 231 230 229 231 234 240 244 244 240 240 247 252 255 252 nan nan nan nan nan nan nan nan nan nan nan nan nan nan nan nan nan nan nan 249 nan nan nan nan nan nan nan nan 254 249 247
257 265 267 271 280 287 289 291 301 297 291 286 282 285 288 285 287 292 296 283 267 265 275 282 273 267 264 248 235 231 231 231 230 232 231 219 217 230 236 234 230 230 230 233 236 238 238 243 245 243 244 250 246 254 264 265 267 261 nan nan nan nan nan nan nan nan nan nan nan nan nan nan nan nan nan nan nan nan nan nan nan nan nan nan nan
273 284 289 296 302 301 296 296 300 298 296 292 286 284 283 283 283 284 288 280 268 262 265 275 273 264 259 248 238 233 232 235 237 236 233 220 215 215 230 228 228 232 235 236 237 239 240 244 243 241 243 248 247 251 253 258 265 263 259 nan nan nan nan nan nan nan nan nan nan nan nan nan nan nan nan nan nan nan nan nan nan nan nan nan nan